Hourly Weather Roundup
Issued by NWS Central Illinois

Home | Current Version | Previous Version | Text Only | Print | Product List | Glossary On
Versions: 1 2 3 4 5 6 7 8 9 10 11 12 13 14 15 16 17 18 19 20 21 22 23 24 25 26 27 28 29 30 31 32 33 34 35 36 37 38 39 40 41 42 43 44 45 46 47 48 49 50
000
NZUS43 KILX 180810
HWRILX

AREA WEATHER ROUNDUP
NATIONAL WEATHER SERVICE, LINCOLN IL
300 AM CDT SAT APR 18 2015


CITY           SKY/WX    TMP DP  RH WIND       PRES   REMARKS
BLOOMINGTON    CLEAR     58  52  80 S6        30.05S
CHAMPAIGN      CLEAR     57  48  72 CALM      30.03S
DECATUR        CLEAR     52  48  86 CALM      30.03S
EFFINGHAM      CLEAR     54  51  89 CALM      30.04S
FLORA          CLEAR     55  54  97 N3        30.02F FOG
GALESBURG      PTCLDY    55  51  87 CALM      30.01S
JACKSONVILLE   CLEAR     62  55  77 S3        30.02S
LACON          PTCLDY    59  51  75 CALM      30.01S
LAWRENCEVILLE  CLEAR     54  53  97 N3        30.02F
LITCHFIELD     CLEAR     59  53  79 CALM      30.02S
$$


CITY           SKY/WX    TMP DP  RH WIND       PRES   REMARKS
LINCOLN        PTCLDY    55  49  80 E3        30.02S
MACOMB         CLEAR     53  48  82 CALM      30.03F
MATTOON        CLEAR     55  50  83 S5        30.02S
MT CARMEL AP   CLEAR     57  52  82 CALM      30.02F
OLNEY-NOBLE AP CLEAR     54  52  94 CALM      30.02F
PARIS          CLEAR     54  52  92 CALM      30.04F
PEORIA         PTCLDY    62  52  69 S3        30.02S
PONTIAC        PTCLDY    64  53  69 S5        30.03F
RANTOUL        CLOUDY    60  52  76 CALM      30.04S
ROBINSON       CLEAR     52  51  97 CALM      30.04S
SPRINGFIELD    CLEAR     58  52  80 CALM      30.02S
TAYLORVILLE    CLEAR     57  54  88 CALM      30.02S
$$

...REGIONAL REPORTS...


CITY           SKY/WX    TMP DP  RH WIND       PRES   REMARKS
CHICAGO O`HARE PTCLDY    63  47  55 SW6       30.00S
KANKAKEE       CLEAR     56  49  78 SW5       30.04R
MOLINE         PTCLDY    50  45  83 CALM      29.99F
MOUNT VERNON   CLEAR     52  46  82 CALM      30.01S
PITTSFIELD     PTCLDY    61  53  75 CALM      30.02F
QUINCY         MOCLDY    62  53  72 S5        30.00F
ROCKFORD       MOCLDY    56  48  74 N3        30.04R
$$


CITY           SKY/WX    TMP DP  RH WIND       PRES   REMARKS
BURLINGTON     CLEAR     58  51  78 S3        30.00S
CEDAR RAPIDS   PTCLDY    53  48  83 CALM      29.99F
DES MOINES     CLOUDY    64  56  75 CALM      29.99F
KIRKSVILLE     CLOUDY    63  55  75 E6        29.99F
OTTUMWA        MOCLDY    61  50  67 E7        29.99F
ST LOUIS       MOCLDY    65  55  70 E3        30.01S
$$


CITY           SKY/WX    TMP DP  RH WIND       PRES   REMARKS
TERRE HAUTE    CLEAR     51  47  86 CALM      30.04S
EVANSVILLE     CLEAR     58  56  93 CALM      30.01F FOG
INDIANAPOLIS   CLEAR     57  45  64 CALM      30.03F
LAFAYETTE      CLEAR     51  46  83 CALM      30.04S
MADISON        CLEAR     51  45  79 CALM      30.02R
MILWAUKEE      PTCLDY    50  41  71 CALM      30.00S
$$





USA.gov is the U.S. government's official web portal to all federal, state and local government web resources and services.